STARLINK-35233

Last updated on Mon Oct 20 2025 00:02:05 GMT+0000 (Coordinated Universal Time)

1 65678U 25212C 25292.25002315 -.02057601 00000+0 -64547-1 0 9991 2 65678 53.1592 282.9709 0001108 82.7736 289.4724 15.35764818 5671
UTC large
Height (km)
Speed (km/s)
/
Latitude / Longitude
Inclination (degrees)
Orbital Period (minutes)
Azimuth
Elevation
Range (km)
Doppler Factor

Next 0 passes for location: London (51.5072 / 0.1276)

Sorry there are no passes over London.